When you browse on this site, cookies collect data to enhance your experience and personalize the content and advertising you see.
Visit our Privacy Policy to learn more. By continuing to use the site, you agree to this use of cookies and data.
  • In Netherlands
  • List of Countries
  • For 7 days
  • Water Temperature
  • Satellite Maps
  • Weather Map
  • Weather Widgets
  • user-avatar
    Login

    Hourly Weather Probuzhdenie

    Today, 22 May, Wednesday

    Time Temperature Precipitation Wind Pressure Humidity
    00:00 +16°C° 0 mm 5 mps 761 mmHg 51%
    01:00 +16°C° 0 mm 5 mps 761 mmHg 53%
    02:00 +15°C° 0 mm 5 mps 761 mmHg 54%
    03:00 +14°C° 0 mm 3 mps 760 mmHg 64%
    04:00 +14°C° 0 mm 4 mps 760 mmHg 62%
    05:00 +14°C° 0 mm 5 mps 760 mmHg 60%
    06:00 +14°C° 0 mm 5 mps 760 mmHg 58%
    07:00 +15°C° 0 mm 6 mps 760 mmHg 54%
    08:00 +17°C° 0 mm 6 mps 760 mmHg 49%
    09:00 +20°C° 0 mm 7 mps 760 mmHg 42%
    10:00 +21°C° 0 mm 7 mps 759 mmHg 41%
    11:00 +22°C° 0 mm 7 mps 759 mmHg 40%
    12:00 +23°C° 0 mm 7 mps 759 mmHg 39%
    13:00 +23°C° 0 mm 7 mps 758 mmHg 40%
    14:00 +23°C° 0 mm 7 mps 758 mmHg 41%
    15:00 +24°C° 0 mm 7 mps 758 mmHg 42%
    16:00 +23°C° 0 mm 6 mps 757 mmHg 52%
    17:00 +21°C° 0 mm 5 mps 757 mmHg 62%
    18:00 +20°C° 0 mm 4 mps 757 mmHg 72%
    19:00 +19°C° 0.2 mm 4 mps 757 mmHg 79%
    20:00 +18°C° 0.2 mm 3 mps 757 mmHg 86%
    21:00 +16°C° 0.2 mm 3 mps 757 mmHg 93%
    22:00 +16°C° 0.1 mm 3 mps 756 mmHg 93%
    23:00 +15°C° 0.1 mm 4 mps 756 mmHg 93%

    Tomorrow, 23 May, Thursday

    Time Temperature Precipitation Wind Pressure Humidity
    00:00 +14°C° 0.1 mm 4 mps 756 mmHg 93%
    01:00 +14°C° 0.4 mm 4 mps 756 mmHg 94%
    02:00 +14°C° 0.4 mm 4 mps 756 mmHg 94%
    03:00 +14°C° 0.4 mm 4 mps 756 mmHg 95%
    04:00 +14°C° 0 mm 4 mps 755 mmHg 94%
    05:00 +15°C° 0 mm 4 mps 755 mmHg 93%
    06:00 +15°C° 0 mm 4 mps 755 mmHg 93%
    07:00 +17°C° 0.7 mm 5 mps 755 mmHg 83%
    08:00 +19°C° 0.7 mm 6 mps 755 mmHg 73%
    09:00 +21°C° 0.7 mm 6 mps 755 mmHg 64%
    10:00 +22°C° 0.1 mm 6 mps 755 mmHg 59%
    11:00 +23°C° 0.1 mm 7 mps 754 mmHg 55%
    12:00 +24°C° 0.1 mm 7 mps 754 mmHg 50%
    13:00 +24°C° 0.4 mm 7 mps 754 mmHg 52%
    14:00 +23°C° 0.4 mm 7 mps 754 mmHg 54%
    15:00 +23°C° 0.4 mm 8 mps 754 mmHg 56%
    16:00 +23°C° 0.3 mm 7 mps 754 mmHg 59%
    17:00 +22°C° 0.3 mm 6 mps 754 mmHg 62%
    18:00 +21°C° 0.3 mm 6 mps 754 mmHg 65%
    19:00 +20°C° 0 mm 5 mps 754 mmHg 70%
    20:00 +19°C° 0 mm 5 mps 754 mmHg 74%
    21:00 +17°C° 0 mm 4 mps 754 mmHg 79%
    22:00 +17°C° 0 mm 4 mps 754 mmHg 80%
    23:00 +15°C° 0 mm 4 mps 754 mmHg 82%

    Day after tomorrow, 24 May, Friday

    Time Temperature Precipitation Wind Pressure Humidity
    00:00 +15°C° 0 mm 5 mps 754 mmHg 83%
    01:00 +15°C° 0 mm 5 mps 754 mmHg 84%
    02:00 +15°C° 0 mm 5 mps 754 mmHg 85%
    03:00 +14°C° 0 mm 5 mps 754 mmHg 86%
    04:00 +15°C° 0 mm 5 mps 754 mmHg 85%
    05:00 +15°C° 0 mm 5 mps 754 mmHg 84%
    06:00 +15°C° 0 mm 5 mps 754 mmHg 84%
    07:00 +17°C° 0 mm 5 mps 755 mmHg 78%
    08:00 +20°C° 0 mm 6 mps 755 mmHg 71%
    09:00 +22°C° 0 mm 6 mps 755 mmHg 65%
    10:00 +23°C° 0.2 mm 6 mps 755 mmHg 61%
    11:00 +24°C° 0.2 mm 6 mps 755 mmHg 57%
    12:00 +26°C° 0.2 mm 6 mps 755 mmHg 53%
    13:00 +27°C° 0 mm 6 mps 755 mmHg 52%
    14:00 +27°C° 0 mm 5 mps 755 mmHg 50%
    15:00 +28°C° 0 mm 5 mps 755 mmHg 49%
    16:00 +27°C° 0 mm 4 mps 755 mmHg 52%
    17:00 +27°C° 0 mm 4 mps 755 mmHg 56%
    18:00 +26°C° 0 mm 3 mps 755 mmHg 59%
    19:00 +24°C° 0 mm 3 mps 755 mmHg 64%
    20:00 +21°C° 0 mm 2 mps 755 mmHg 68%
    21:00 +19°C° 0 mm 2 mps 755 mmHg 72%
    22:00 +20°C° 0 mm 1 mps 755 mmHg 74%
    23:00 +19°C° 0 mm 1 mps 755 mmHg 76%

    25 May, Saturday

    Time Temperature Precipitation Wind Pressure Humidity
    00:00 +19°C° 0 mm 1 mps 755 mmHg 78%
    01:00 +19°C° 0 mm 1 mps 755 mmHg 79%
    02:00 +18°C° 0 mm 1 mps 755 mmHg 80%
    03:00 +18°C° 0 mm 1 mps 755 mmHg 82%
    04:00 +19°C° 0 mm 1 mps 755 mmHg 81%
    05:00 +18°C° 0 mm 2 mps 755 mmHg 80%
    06:00 +19°C° 0 mm 2 mps 755 mmHg 80%
    07:00 +21°C° 0 mm 2 mps 755 mmHg 74%
    08:00 +24°C° 0 mm 3 mps 755 mmHg 67%
    09:00 +25°C° 0 mm 3 mps 755 mmHg 61%
    10:00 +26°C° 0.3 mm 3 mps 755 mmHg 59%
    11:00 +26°C° 0.3 mm 4 mps 754 mmHg 58%
    12:00 +27°C° 0.3 mm 4 mps 754 mmHg 56%
    13:00 +26°C° 1.5 mm 4 mps 754 mmHg 63%
    14:00 +23°C° 1.5 mm 4 mps 754 mmHg 69%
    15:00 +22°C° 1.5 mm 4 mps 753 mmHg 75%
    16:00 +21°C° 4.1 mm 4 mps 753 mmHg 81%
    17:00 +20°C° 4.1 mm 4 mps 753 mmHg 86%
    18:00 +19°C° 4.1 mm 4 mps 752 mmHg 91%
    19:00 +18°C° 1.6 mm 3 mps 753 mmHg 93%
    20:00 +17°C° 1.6 mm 3 mps 753 mmHg 94%
    21:00 +17°C° 1.6 mm 2 mps 753 mmHg 96%
    22:00 +17°C° 0.2 mm 2 mps 753 mmHg 96%
    23:00 +17°C° 0.2 mm 3 mps 753 mmHg 96%

    26 May, Sunday

    Time Temperature Precipitation Wind Pressure Humidity
    00:00 +16°C° 0.2 mm 3 mps 753 mmHg 96%
    01:00 +16°C° 0 mm 3 mps 753 mmHg 96%
    02:00 +15°C° 0 mm 4 mps 753 mmHg 96%
    03:00 +15°C° 0 mm 4 mps 754 mmHg 96%
    04:00 +15°C° 0 mm 5 mps 754 mmHg 93%
    05:00 +15°C° 0 mm 5 mps 754 mmHg 90%
    06:00 +16°C° 0 mm 6 mps 754 mmHg 87%
    07:00 +17°C° 0 mm 6 mps 755 mmHg 83%
    08:00 +20°C° 0 mm 5 mps 755 mmHg 78%
    09:00 +22°C° 0 mm 5 mps 755 mmHg 73%
    10:00 +23°C° 0.2 mm 6 mps 755 mmHg 69%
    11:00 +24°C° 0.2 mm 6 mps 755 mmHg 64%
    12:00 +26°C° 0.2 mm 6 mps 755 mmHg 60%
    13:00 +26°C° 0.3 mm 6 mps 755 mmHg 60%
    14:00 +26°C° 0.3 mm 6 mps 755 mmHg 60%
    15:00 +26°C° 0.3 mm 6 mps 755 mmHg 60%
    16:00 +25°C° 0.9 mm 5 mps 755 mmHg 64%
    17:00 +25°C° 0.9 mm 5 mps 755 mmHg 69%
    18:00 +23°C° 0.9 mm 4 mps 755 mmHg 73%
    19:00 +22°C° 0 mm 4 mps 755 mmHg 77%
    20:00 +20°C° 0 mm 4 mps 756 mmHg 82%
    21:00 +19°C° 0 mm 4 mps 756 mmHg 87%
    22:00 +18°C° 0 mm 4 mps 756 mmHg 88%
    23:00 +18°C° 0 mm 4 mps 756 mmHg 89%

    27 May, Monday

    Time Temperature Precipitation Wind Pressure Humidity
    00:00 +18°C° 0 mm 4 mps 756 mmHg 91%
    01:00 +16°C° 0 mm 5 mps 756 mmHg 92%
    02:00 +16°C° 0 mm 5 mps 756 mmHg 93%
    03:00 +16°C° 0 mm 5 mps 756 mmHg 94%
    04:00 +16°C° 0 mm 5 mps 757 mmHg 94%
    05:00 +16°C° 0 mm 5 mps 757 mmHg 93%
    06:00 +17°C° 0 mm 5 mps 758 mmHg 93%
    07:00 +19°C° 0 mm 4 mps 758 mmHg 87%
    08:00 +21°C° 0 mm 4 mps 758 mmHg 82%
    09:00 +22°C° 0 mm 3 mps 758 mmHg 76%
    10:00 +23°C° 0 mm 4 mps 759 mmHg 69%
    11:00 +26°C° 0 mm 4 mps 759 mmHg 62%
    12:00 +27°C° 0 mm 4 mps 759 mmHg 54%
    13:00 +28°C° 0 mm 4 mps 759 mmHg 53%
    14:00 +28°C° 0 mm 4 mps 759 mmHg 51%
    15:00 +28°C° 0 mm 4 mps 759 mmHg 50%
    16:00 +28°C° 0 mm 3 mps 759 mmHg 54%
    17:00 +28°C° 0 mm 3 mps 759 mmHg 58%
    18:00 +27°C° 0 mm 2 mps 759 mmHg 62%
    19:00 +25°C° 0 mm 2 mps 759 mmHg 65%
    20:00 +23°C° 0 mm 2 mps 760 mmHg 69%
    21:00 +20°C° 0 mm 3 mps 760 mmHg 72%
    22:00 +20°C° 0 mm 2 mps 760 mmHg 75%
    23:00 +19°C° 0 mm 2 mps 760 mmHg 77%
    Show more